TimeEDT,TemperatureF,Dew PointF,Humidity,Sea Level PressureIn,VisibilityMPH,Wind Direction,Wind SpeedMPH,Gust SpeedMPH,PrecipitationIn,Events,Conditions,WindDirDegrees,DateUTC
12:14 AM,34.5,22.3,61,30.27,10.0,West,5.8,-,N/A,,Clear,280,2013-03-29 04:14:00
12:34 AM,34.2,22.1,61,30.27,10.0,West,6.9,-,N/A,,Clear,280,2013-03-29 04:34:00
12:54 AM,34.3,21.6,60,30.27,10.0,West,6.9,-,N/A,,Clear,280,2013-03-29 04:54:00
1:14 AM,32.4,22.5,67,30.27,10.0,West,6.9,-,N/A,,Clear,280,2013-03-29 05:14:00
1:34 AM,33.3,21.4,62,30.27,10.0,West,6.9,-,N/A,,Clear,280,2013-03-29 05:34:00
1:54 AM,33.1,21.2,62,30.27,10.0,West,6.9,-,N/A,,Clear,280,2013-03-29 05:54:00
2:14 AM,32.9,21.2,62,30.27,10.0,West,5.8,-,N/A,,Clear,280,2013-03-29 06:14:00
2:34 AM,30.9,22.6,71,30.27,10.0,West,6.9,-,N/A,,Clear,270,2013-03-29 06:34:00
2:54 AM,29.3,22.5,76,30.27,10.0,West,6.9,-,N/A,,Clear,270,2013-03-29 06:54:00
3:14 AM,30.7,23.0,73,30.27,10.0,WNW,3.5,-,N/A,,Clear,290,2013-03-29 07:14:00
3:34 AM,30.9,23.0,72,30.27,10.0,West,4.6,-,N/A,,Clear,280,2013-03-29 07:34:00
3:54 AM,30.6,23.0,74,30.27,10.0,West,4.6,-,N/A,,Clear,280,2013-03-29 07:54:00
4:14 AM,29.7,23.7,79,30.27,10.0,West,5.8,-,N/A,,Clear,270,2013-03-29 08:14:00
4:34 AM,29.7,22.8,76,30.27,7.0,West,5.8,-,N/A,,Clear,260,2013-03-29 08:34:00
4:54 AM,29.1,22.6,77,30.27,10.0,West,5.8,-,N/A,,Clear,270,2013-03-29 08:54:00
5:14 AM,29.1,23.2,78,30.27,10.0,West,3.5,-,N/A,,Clear,270,2013-03-29 09:14:00
5:34 AM,28.9,22.8,78,30.27,10.0,West,4.6,-,N/A,,Clear,270,2013-03-29 09:34:00
5:54 AM,29.7,22.1,73,30.27,10.0,West,4.6,-,N/A,,Clear,280,2013-03-29 09:54:00
6:14 AM,28.0,23.2,82,30.27,10.0,WSW,4.6,-,N/A,,Clear,250,2013-03-29 10:14:00
6:34 AM,27.7,22.5,81,30.26,10.0,WSW,5.8,-,N/A,,Clear,250,2013-03-29 10:34:00
6:54 AM,27.3,22.6,83,30.26,10.0,WSW,3.5,-,N/A,,Clear,250,2013-03-29 10:54:00
7:14 AM,27.5,23.4,84,30.27,10.0,WSW,4.6,-,N/A,,Clear,250,2013-03-29 11:14:00
7:34 AM,28.0,23.4,83,30.27,10.0,West,5.8,-,N/A,,Clear,260,2013-03-29 11:34:00
7:54 AM,27.7,23.2,83,30.27,10.0,WSW,6.9,-,N/A,,Clear,250,2013-03-29 11:54:00
8:14 AM,30.0,24.8,81,30.27,7.0,West,5.8,-,N/A,,Clear,260,2013-03-29 12:14:00
8:34 AM,31.1,25.9,81,30.28,10.0,Calm,Calm,-,N/A,,Clear,0,2013-03-29 12:34:00
8:54 AM,32.0,26.1,79,30.27,10.0,West,3.5,-,N/A,,Clear,260,2013-03-29 12:54:00
9:14 AM,34.2,27.5,77,30.27,10.0,WNW,3.5,-,N/A,,Clear,290,2013-03-29 13:14:00
9:34 AM,35.6,28.0,74,30.28,10.0,WNW,4.6,-,N/A,,Clear,290,2013-03-29 13:34:00
9:54 AM,36.5,28.8,74,30.28,10.0,WNW,4.6,-,N/A,,Clear,290,2013-03-29 13:54:00
10:14 AM,37.4,29.1,72,30.28,10.0,NW,4.6,-,N/A,,Clear,310,2013-03-29 14:14:00
10:34 AM,39.0,29.3,68,30.28,10.0,NNW,3.5,-,N/A,,Clear,330,2013-03-29 14:34:00
10:54 AM,40.8,28.9,63,30.28,10.0,West,3.5,-,N/A,,Clear,270,2013-03-29 14:54:00
11:14 AM,42.1,27.3,56,30.28,10.0,Calm,Calm,-,N/A,,Clear,0,2013-03-29 15:14:00
11:34 AM,41.9,25.9,53,30.28,10.0,SSW,3.5,-,N/A,,Clear,200,2013-03-29 15:34:00
11:54 AM,43.0,25.7,51,30.28,10.0,Calm,Calm,-,N/A,,Clear,0,2013-03-29 15:54:00
12:14 PM,44.1,25.7,49,30.28,10.0,SSW,3.5,-,N/A,,Clear,210,2013-03-29 16:14:00
12:54 PM,45.7,26.1,46,30.27,10.0,SSW,4.6,-,N/A,,Clear,200,2013-03-29 16:54:00
1:14 PM,46.6,25.2,43,30.26,10.0,Calm,Calm,-,N/A,,Clear,0,2013-03-29 17:14:00
1:34 PM,47.5,27.0,45,30.25,10.0,Calm,Calm,-,N/A,,Clear,0,2013-03-29 17:34:00
1:54 PM,48.4,24.6,39,30.25,10.0,Calm,Calm,-,N/A,,Clear,0,2013-03-29 17:54:00
2:14 PM,50.2,22.1,33,30.24,10.0,WNW,3.5,-,N/A,,Clear,290,2013-03-29 18:14:00
2:34 PM,49.5,21.7,34,30.23,10.0,NNW,5.8,-,N/A,,Clear,330,2013-03-29 18:34:00
2:54 PM,50.9,23.2,34,30.23,10.0,WSW,4.6,-,N/A,,Mostly Cloudy,250,2013-03-29 18:54:00
3:14 PM,50.5,22.8,34,30.22,10.0,Calm,Calm,-,N/A,,Mostly Cloudy,0,2013-03-29 19:14:00
3:34 PM,51.3,22.3,32,30.21,10.0,SSW,5.8,-,N/A,,Mostly Cloudy,200,2013-03-29 19:34:00
3:54 PM,52.7,22.3,31,30.21,10.0,West,3.5,-,N/A,,Scattered Clouds,260,2013-03-29 19:54:00
4:14 PM,52.0,23.4,33,30.20,10.0,NNW,9.2,-,N/A,,Scattered Clouds,340,2013-03-29 20:14:00
4:34 PM,51.6,22.5,32,30.20,10.0,WNW,8.1,-,N/A,,Scattered Clouds,290,2013-03-29 20:34:00
4:54 PM,52.5,22.1,31,30.20,10.0,Calm,Calm,-,N/A,,Clear,0,2013-03-29 20:54:00
5:14 PM,51.4,21.9,32,30.19,10.0,WNW,10.4,-,N/A,,Clear,290,2013-03-29 21:14:00
5:34 PM,49.3,21.4,33,30.19,10.0,WNW,10.4,-,N/A,,Clear,300,2013-03-29 21:34:00
5:54 PM,50.5,22.5,33,30.19,10.0,WNW,11.5,-,N/A,,Clear,290,2013-03-29 21:54:00
6:14 PM,50.9,22.3,33,30.19,10.0,West,6.9,-,N/A,,Scattered Clouds,270,2013-03-29 22:14:00
6:34 PM,50.5,22.1,33,30.19,10.0,West,12.7,-,N/A,,Scattered Clouds,280,2013-03-29 22:34:00
6:54 PM,49.5,22.1,34,30.19,10.0,WNW,10.4,-,N/A,,Scattered Clouds,300,2013-03-29 22:54:00
7:14 PM,48.6,20.8,34,30.19,10.0,West,10.4,-,N/A,,Clear,280,2013-03-29 23:14:00
7:34 PM,47.5,20.3,34,30.20,10.0,West,11.5,-,N/A,,Clear,280,2013-03-29 23:34:00
7:54 PM,46.2,20.3,36,30.20,10.0,West,10.4,-,N/A,,Clear,280,2013-03-29 23:54:00
8:14 PM,45.0,21.0,39,30.20,10.0,WNW,6.9,-,N/A,,Clear,290,2013-03-30 00:14:00
8:34 PM,44.1,22.1,42,30.20,10.0,WNW,9.2,-,N/A,,Clear,290,2013-03-30 00:34:00
8:54 PM,43.3,22.6,44,30.21,10.0,WNW,8.1,-,N/A,,Clear,290,2013-03-30 00:54:00
9:14 PM,42.3,23.0,47,30.21,10.0,WNW,8.1,-,N/A,,Clear,290,2013-03-30 01:14:00
9:34 PM,41.2,23.0,48,30.22,10.0,WNW,8.1,-,N/A,,Clear,290,2013-03-30 01:34:00
9:54 PM,41.0,23.2,49,30.22,10.0,WNW,5.8,-,N/A,,Clear,290,2013-03-30 01:54:00
10:14 PM,39.9,23.2,51,30.22,10.0,WNW,6.9,-,N/A,,Clear,290,2013-03-30 02:14:00
10:34 PM,39.6,23.0,52,30.22,10.0,WNW,6.9,-,N/A,,Clear,290,2013-03-30 02:34:00
10:54 PM,38.7,23.0,53,30.22,10.0,WNW,5.8,-,N/A,,Clear,290,2013-03-30 02:54:00
11:14 PM,38.5,23.2,54,30.22,10.0,West,5.8,-,N/A,,Clear,280,2013-03-30 03:14:00
11:34 PM,37.2,23.7,58,30.21,10.0,WNW,4.6,-,N/A,,Clear,300,2013-03-30 03:34:00
11:54 PM,35.6,24.3,63,30.21,10.0,WNW,5.8,-,N/A,,Clear,290,2013-03-30 03:54:00